Date String (YYYY-MM-DD hh:mm:ss) UTC,Instrument flags,Ambient pressure (hPa),Sample flow (lpm),Bypass flow (lpm),Sample temperature (°C),Ambient temperature (°C),ASC tube jacket temperature (°C),LED temperature (°C),Box temperature (°C),Sample RH (%),Span deviation,Mass concentration (μg/m³),Mass concentration (μg/m³),Mass concentration (μg/m³)
DateTimeUTC,F1_M11,P_M11,Q1_M11,Q2_M11,T1_M11,T2_M11,T3_M11,T4_M11,T5_M11,U1_M11,ZSPAN_M11,X0_M11,X2_M11,X1_M11
2021-11-07 05:00:00,,0824.4,5.00,0.00,30.2,29.3,00.0,39.2,31.9,06.4,0000.0,0003.34,0001.78,0001.19
2021-11-07 05:01:00,,0824.5,5.00,0.00,30.2,29.3,00.0,39.2,31.9,06.2,0000.0,0003.35,0001.78,0001.19
2021-11-07 05:02:00,,0824.4,5.00,0.00,30.2,29.3,00.0,39.2,31.9,06.2,0000.0,0003.34,0001.76,0001.19
2021-11-07 05:03:00,,0824.5,5.00,0.00,30.2,29.3,00.0,39.2,31.9,06.1,0000.0,0003.01,0001.72,0001.20
2021-11-07 05:04:00,,0824.5,5.01,0.00,30.2,29.3,00.0,39.3,31.9,06.5,0000.0,0002.86,0001.67,0001.19
2021-11-07 05:05:00,,0824.5,5.00,0.00,30.2,29.3,00.0,39.3,31.9,06.4,0000.0,0002.81,0001.64,0001.20
2021-11-07 05:06:00,,0824.5,5.00,0.00,30.2,29.3,00.0,39.3,31.9,06.6,0000.0,0002.91,0001.66,0001.21
2021-11-07 05:07:00,,0824.5,5.00,0.00,30.2,29.3,00.0,39.3,31.9,06.3,0000.0,0003.18,0001.73,0001.22
2021-11-07 05:08:00,,0824.4,5.01,0.00,30.2,29.3,00.0,39.3,31.9,06.5,0000.0,0003.08,0001.71,0001.22
2021-11-07 05:09:00,,0824.4,4.99,0.00,30.2,29.3,00.0,39.3,31.9,06.5,0000.0,0002.81,0001.61,0001.22
2021-11-07 05:10:00,,0824.3,5.00,0.00,30.2,29.3,00.0,39.3,31.9,06.8,0000.0,0002.77,0001.59,0001.21
2021-11-07 05:11:00,,0824.3,4.99,0.00,30.2,29.3,00.0,39.3,31.9,06.7,0000.0,0002.65,0001.56,0001.21
2021-11-07 05:12:00,,0824.3,5.00,0.00,30.2,29.3,00.0,39.3,31.9,06.7,0000.0,0002.67,0001.57,0001.21
2021-11-07 05:13:00,,0824.3,5.00,0.00,30.2,29.3,00.0,39.3,31.9,06.8,0000.0,0002.71,0001.58,0001.21
2021-11-07 05:14:00,,0824.3,5.00,0.00,30.2,29.3,00.0,39.3,31.9,07.0,0000.0,0002.60,0001.57,0001.21
2021-11-07 05:15:00,,0824.3,5.00,0.00,30.2,29.3,00.0,39.3,31.9,06.9,0000.0,0002.58,0001.56,0001.20
2021-11-07 05:16:00,,0824.3,4.99,0.00,30.2,29.3,00.0,39.3,31.9,06.9,0000.0,0002.58,0001.58,0001.21
2021-11-07 05:17:00,,0824.4,5.00,0.00,30.2,29.3,00.0,39.3,31.9,06.8,0000.0,0002.64,0001.60,0001.21
2021-11-07 05:18:00,,0824.4,5.00,0.00,30.2,29.3,00.0,39.3,31.8,06.7,0000.0,0002.53,0001.58,0001.20
2021-11-07 05:19:00,,0824.4,5.01,0.00,30.2,29.3,00.0,39.3,31.8,06.7,0000.0,0002.51,0001.56,0001.20
2021-11-07 05:20:00,,0824.4,5.01,0.00,30.2,29.3,00.0,39.3,31.8,06.7,0000.0,0002.61,0001.59,0001.21
2021-11-07 05:21:00,,0824.4,5.00,0.00,30.2,29.2,00.0,39.2,31.8,06.8,0000.0,0002.71,0001.64,0001.23
2021-11-07 05:22:00,,0824.4,5.00,0.00,30.2,29.2,00.0,39.2,31.8,06.7,0000.0,0002.82,0001.65,0001.22
2021-11-07 05:23:00,,0824.5,4.99,0.00,30.2,29.2,00.0,39.2,31.8,06.3,0000.0,0002.89,0001.63,0001.22
2021-11-07 05:24:00,,0824.4,5.01,0.00,30.2,29.2,00.0,39.2,31.8,06.2,0000.0,0003.46,0001.64,0001.21
2021-11-07 05:25:00,,0824.4,4.99,0.00,30.2,29.2,00.0,39.2,31.8,06.1,0000.0,0004.18,0001.65,0001.22
2021-11-07 05:26:00,,0824.4,5.01,0.00,30.2,29.2,00.0,39.2,31.9,06.1,0000.0,0004.42,0001.66,0001.22
2021-11-07 05:27:00,,0824.3,4.99,0.00,30.2,29.2,00.0,39.2,31.8,05.9,0000.0,0004.49,0001.64,0001.22
2021-11-07 05:28:00,,0824.3,4.99,0.00,30.1,29.2,00.0,39.2,31.8,05.9,0000.0,0004.56,0001.66,0001.22
2021-11-07 05:29:00,,0824.3,5.02,0.00,30.1,29.2,00.0,39.2,31.8,06.1,0000.0,0004.38,0001.60,0001.22
2021-11-07 05:30:00,,0824.3,5.00,0.00,30.1,29.2,00.0,39.2,31.8,06.5,0000.0,0004.44,0001.61,0001.21
2021-11-07 05:31:00,,0824.4,5.00,0.00,30.1,29.2,00.0,39.2,31.8,06.6,0000.0,0004.60,0001.57,0001.19
2021-11-07 05:32:00,,0824.4,4.99,0.00,30.1,29.2,00.0,39.2,31.7,06.5,0000.0,0004.56,0001.50,0001.17
2021-11-07 05:33:00,,0824.4,5.01,0.00,30.1,29.2,00.0,39.2,31.7,06.6,0000.0,0004.46,0001.50,0001.17
2021-11-07 05:34:00,,0824.3,5.01,0.00,30.1,29.1,00.0,39.2,31.7,06.5,0000.0,0004.34,0001.50,0001.18
2021-11-07 05:35:00,,0824.3,4.99,0.00,30.1,29.1,00.0,39.2,31.7,06.5,0000.0,0003.62,0001.45,0001.16
2021-11-07 05:36:00,,0824.4,5.00,0.00,30.1,29.1,00.0,39.2,31.7,06.3,0000.0,0002.90,0001.43,0001.16
2021-11-07 05:37:00,,0824.3,5.00,0.00,30.1,29.1,00.0,39.2,31.7,06.2,0000.0,0002.71,0001.46,0001.14
2021-11-07 05:38:00,,0824.4,5.00,0.00,30.1,29.1,00.0,39.2,31.7,06.3,0000.0,0002.65,0001.46,0001.12
2021-11-07 05:39:00,,0824.3,5.01,0.00,30.1,29.1,00.0,39.2,31.7,06.2,0000.0,0002.72,0001.45,0001.10
2021-11-07 05:40:00,,0824.3,5.00,0.00,30.1,29.1,00.0,39.2,31.7,06.0,0000.0,0002.89,0001.43,0001.08
2021-11-07 05:41:00,,0824.3,5.00,0.00,30.1,29.1,00.0,39.2,31.7,06.0,0000.0,0002.97,0001.44,0001.08
2021-11-07 05:42:00,,0824.3,5.00,0.00,30.1,29.0,00.0,39.2,31.7,06.1,0000.0,0002.82,0001.49,0001.08
2021-11-07 05:43:00,,0824.4,5.00,0.00,30.1,29.0,00.0,39.2,31.7,06.0,0000.0,0002.74,0001.49,0001.07
2021-11-07 05:44:00,,0824.3,5.00,0.00,30.1,29.0,00.0,39.2,31.7,05.8,0000.0,0002.70,0001.47,0001.06
2021-11-07 05:45:00,,0824.3,5.00,0.00,30.1,29.1,00.0,39.2,31.7,05.8,0000.0,0002.76,0001.48,0001.05
2021-11-07 05:46:00,,0824.3,5.00,0.00,30.1,29.1,00.0,39.2,31.8,05.8,0000.0,0002.87,0001.52,0001.06
2021-11-07 05:47:00,,0824.3,4.99,0.00,30.1,29.1,00.0,39.2,31.8,05.8,0000.0,0003.46,0001.54,0001.05
2021-11-07 05:48:00,,0824.2,5.01,0.00,30.1,29.1,00.0,39.2,31.7,05.8,0000.0,0003.40,0001.50,0001.05
2021-11-07 05:49:00,,0824.2,5.01,0.00,30.1,29.1,00.0,39.2,31.7,05.9,0000.0,0003.73,0001.48,0001.06
2021-11-07 05:50:00,,0824.2,4.99,0.00,30.1,29.1,00.0,39.2,31.8,05.9,0000.0,0003.71,0001.45,0001.06
2021-11-07 05:51:00,,0824.2,4.98,0.00,30.1,29.1,00.0,39.2,31.7,06.0,0000.0,0003.56,0001.47,0001.07
2021-11-07 05:52:00,,0824.2,5.02,0.00,30.1,29.1,00.0,39.2,31.7,05.6,0000.0,0003.46,0001.46,0001.06
2021-11-07 05:53:00,,0824.2,4.98,0.00,30.1,29.1,00.0,39.1,31.7,05.4,0000.0,0003.42,0001.43,0001.07
2021-11-07 05:54:00,,0824.3,5.00,0.00,30.1,29.1,00.0,39.2,31.7,05.7,0000.0,0003.55,0001.48,0001.07
2021-11-07 05:55:00,,0824.4,5.00,0.00,30.1,29.1,00.0,39.1,31.7,05.7,0000.0,0003.56,0001.48,0001.07
2021-11-07 05:56:00,,0824.2,5.01,0.00,30.1,29.1,00.0,39.1,31.7,05.4,0000.0,0003.44,0001.44,0001.06
2021-11-07 05:57:00,,0824.2,4.99,0.00,30.1,29.1,00.0,39.1,31.7,05.3,0000.0,0003.74,0001.47,0001.04
2021-11-07 05:58:00,,0824.3,4.99,0.00,30.1,29.1,00.0,39.1,31.7,05.3,0000.0,0003.33,0001.52,0001.04
2021-11-07 05:59:00,,0824.2,5.01,0.00,30.1,29.1,00.0,39.1,31.7,05.6,0000.0,0003.39,0001.56,0001.04
